Starlink 32047

operational
NORAD ID: 61516 Int'l Des: 2024-183 Owner: SPXS Country: US Constellation: starlink
LEOCIRCULAR

Über Starlink 32047

Beschreibung wird geladen...

Live-Position

3D-Globus wird geladen...

Nächste Überflüge

Höhenverlauf

Altitude vs Time

uPlot chart will show altitude changes over time

Zweizeiliger Elementsatz

1 61516U 24183H 25306.45988431 .00004286 00000-0 15681-3 0 9999
2 61516 53.1605 13.3640 0001016 93.1985 266.9132 15.30184572 60170
Epoch: 2. Nov. 2025 • Age: 10 hours

Aktueller Status

Höhe 490.7 km
Geschwindigkeit 7.62 km/s
Subsatellitenpunkt -44.10°S, 127.16°W
Startdatum 15. Okt. 2024
Alter 1 years
Typ internet

Technische Details

Klassifizierung Payload
Masse 730.00 kg
Trockenmasse 700.00 kg
Gesamtmasse 730.00 kg
Länge 0.30 m
Durchmesser 4.10 m
Spannweite 29.00 m
Form Box + pan
Hersteller SPXS
Bus-Typ Starlink V2M
Phasenstatus In Orbit
Besitzer/Staat SPXS/US

Große Konstellationen

Loading constellations...